Back to catalog

STARLINK-5548

AliveCommunicationsSSO
NORAD 56334·PAYLOAD·🇺🇸 United States

Launched Apr 27, 2023 from Vandenberg Space Force Base

Loading…

Next Passes (next 24 hours)

TLE

FreshSource: CelesTrak SupGP

Epoch: Sep 14, 2026, 14:33 UTC

1 56334C 23058T   26257.60673611 -.00062782  00000+0 -19494-2 0  2573
2 56334  97.2847 254.3826 0001861  94.5314  48.9574 15.33462138    16

Track STARLINK-5548 in real time with AllMySat

Download on the App Store